Volver al catálogo

METEOR 1-17 DEB

ActivoPO
NORAD 57957·DEBRIS·🇷🇺 Russia

Lanzado Apr 24, 1974 desde Plesetsk Cosmodrome

Loading…

Próximos Pases (próximas 24 horas)

TLE

ActualizadoSource: Space-Track

Época: Sep 14, 2026, 13:27 UTC

1 57957U 74025N   26257.56091929  .00001972  00000-0  90680-3 0  9999
2 57957  81.2103 197.3884 0014674  65.0613 295.2086 14.20796955156432

Sigue METEOR 1-17 DEB en tiempo real con AllMySat

Download on the App Store